Regional Weather Roundup
Issued by NWS

Home | Current Version | Previous Version | Graphics & Text | Print | Product List | Glossary On
Versions: 1 2 3 4 5 6 7 8 9 10 11 12 13 14 15 16 17 18 19 20 21 22 23 24 25 26 27 28 29 30 31 32 33 34 35 36 37 38 39 40 41 42 43 44 45 46 47 48 49 50
000
ASUS45 KCYS 021310
RWRWY

WYOMING REGIONAL WEATHER ROUNDUP
NATIONAL WEATHER SERVICE CHEYENNE WY
700 AM MDT MON MAY 02 2016

NOTE:  "FAIR" INDICATES FEW OR NO CLOUDS BELOW 12,000 FEET
WITH NO SIGNIFICANT WEATHER AND/OR OBSTRUCTIONS TO VISIBILITY.

WYZ001-021400-
YELLOWSTONE NATIONAL PARK

CITY           SKY/WX    TMP DP  RH WIND       PRES   REMARKS
LK YELLOWSTONE   N/A     21  16  81 CALM      30.31R
W YELLOWSTONE  NOT AVBL

$$
WYZ002>013-054>058-071-098>099-021400-
NORTHERN WYOMING

CITY           SKY/WX    TMP DP  RH WIND       PRES   REMARKS
JACKSON        CLEAR     27  23  86 CALM      30.29R
CODY           FAIR      39  27  60 SW8       30.21S WCI  34
GREYBULL       FAIR      36  29  75 CALM      30.23R
WORLAND        FAIR      38  32  79 SE5       30.23R WCI  34
SHERIDAN       FAIR      36  29  75 CALM      30.19R
BUFFALO          N/A    N/A N/A N/A MISG      30.20S
GILLETTE       FAIR      38  31  76 SW10      30.18S WCI  31
HULETT         FAIR      39  32  75 SW7       30.18S WCI  34
NEWCASTLE      FAIR      32  27  80 CALM      30.20S

$$
WYZ014>020-022>026-101>103-021400-
CENTRAL WYOMING

CITY           SKY/WX    TMP DP  RH WIND       PRES   REMARKS
BIG PINEY      FAIR      20  15  81 E5        30.29S WCI  13
PINEDALE       FAIR      21  19  93 CALM      30.30S
DUBOIS         NOT AVBL
LANDER         FAIR      31  24  75 CALM      30.25S
RIVERTON       FAIR      33  26  75 W8        30.27R WCI  26
CASPER         FAIR      31  24  75 SW15      30.24S WCI  20
DOUGLAS        FAIR      30  28  92 N5        30.24S WCI  25

$$
WYZ021-027>030-104>119-021400-
SOUTHERN WYOMING

CITY           SKY/WX    TMP DP  RH WIND       PRES   REMARKS
EVANSTON       FAIR      30  21  69 E7        30.27R WCI  23
KEMMERER       FAIR      27  23  86 N6        30.28S WCI  20
FORT BRIDGER   SUNNY     28  28 100 SE3       30.31R
ROCK SPRINGS   FAIR      30  21  69 CALM      30.29R
DIXON          FAIR      25  22  88 CALM      30.29R
RAWLINS        FAIR      25  20  81 CALM      30.27R
SARATOGA       FAIR      23  18  80 CALM      30.27R
LARAMIE        FAIR      17  12  80 S6        30.25R WCI   9
CHEYENNE       FAIR      28  20  71 W9        30.24R WCI  19
TORRINGTON     FAIR      30  27  88 W5        30.22S WCI  25
PINE BLUFFS    FAIR      28  23  80 CALM      30.25R

$$



USA.gov is the U.S. government's official web portal to all federal, state and local government web resources and services.